| time (UTC) | temp C | wind direction | speed KPH | gust KPH | rain 1hr cm | rain 24hr cm | rain mn cm | humidity % | barometer mb |
| 20260506073104 | 15 | 116 | 1.6 | 6.4 | 0.00 | 0.00 | 0.00 | 79 | |
| 20260506050134 | 8 | 126 | 0.0 | 3.2 | 0.00 | 0.00 | 0.00 | 96 | |
| 20260506043105 | 8 | 135 | 0.0 | 4.8 | 0.00 | 0.00 | 0.00 | 96 | |
| 20260506040034 | 8 | 150 | 0.0 | 4.8 | 0.00 | 0.00 | 0.00 | 97 | |
| 20260506033106 | 7 | 113 | 1.6 | 4.8 | 0.00 | 0.00 | 0.00 | 97 | |
| 20260506030036 | 8 | 110 | 0.0 | 3.2 | 0.00 | 0.00 | 0.00 | 96 | |
| 20260506023107 | 8 | 129 | 1.6 | 4.8 | 0.00 | 0.00 | 0.00 | 96 | |
| 20260506020037 | 8 | 136 | 1.6 | 6.4 | 0.00 | 0.00 | 0.00 | 96 | |
| 20260506013108 | 8 | 131 | 0.0 | 1.6 | 0.00 | 0.00 | 0.00 | 96 | |
| 20260506010038 | 9 | 122 | 0.0 | 3.2 | 0.00 | 0.00 | 0.00 | 95 | |
| 20260506003108 | 10 | 0.0 | 1.6 | 0.00 | 0.00 | 0.00 | 93 | ||
| 20260506000038 | 11 | 149 | 0.0 | 4.8 | 0.00 | 0.00 | 0.00 | 91 | |
| 20260505233131 | 11 | 150 | 1.6 | 6.4 | 0.00 | 0.00 | 0.00 | 92 | |
| 20260505230039 | 10 | 118 | 0.0 | 3.2 | 0.00 | 0.00 | 0.00 | 94 | |
| 20260505223110 | 11 | 118 | 0.0 | 3.2 | 0.00 | 0.00 | 0.00 | 94 | |
| 20260505220040 | 11 | 151 | 0.0 | 3.2 | 0.00 | 0.00 | 0.00 | 94 | |
| 20260505213111 | 11 | 155 | 0.0 | 1.6 | 0.00 | 0.00 | 0.00 | 95 | |
| 20260505210040 | 11 | 0.0 | 0.0 | 0.00 | 0.00 | 0.00 | 95 | ||
| 20260505203112 | 11 | 0.0 | 1.6 | 0.00 | 0.00 | 0.00 | 94 | ||
| 20260505200042 | 12 | 166 | 0.0 | 3.2 | 0.00 | 0.00 | 0.00 | 93 | |
| 20260505193112 | 12 | 184 | 1.6 | 4.8 | 0.00 | 0.00 | 0.00 | 92 | |
| 20260505190042 | 13 | 171 | 1.6 | 4.8 | 0.00 | 0.00 | 0.00 | 90 | |
| 20260505183134 | 14 | 241 | 3.2 | 11.3 | 0.00 | 0.00 | 0.00 | 88 | |
| 20260505180103 | 14 | 237 | 3.2 | 9.7 | 0.00 | 0.00 | 0.00 | 88 | |
| 20260505173134 | 14 | 229 | 1.6 | 11.3 | 0.00 | 0.00 | 0.00 | 87 | |
| 20260505170104 | 15 | 163 | 1.6 | 9.7 | 0.00 | 0.00 | 0.00 | 85 | |
| 20260505163116 | 15 | 255 | 3.2 | 9.7 | 0.00 | 0.00 | 0.00 | 84 | |
| 20260505153136 | 17 | 257 | 4.8 | 22.5 | 0.00 | 0.00 | 0.00 | 70 | |
| 20260505150106 | 18 | 272 | 4.8 | 17.7 | 0.00 | 0.00 | 0.00 | 62 | |
| 20260505123018 | 23 | 181 | 1.6 | 6.4 | 0.00 | 0.00 | 0.00 | 40 | |
| 20260505120048 | 23 | 178 | 1.6 | 6.4 | 0.00 | 0.00 | 0.00 | 40 | |
| 20260505113018 | 24 | 164 | 1.6 | 9.7 | 0.00 | 0.00 | 0.00 | 39 | |
| 20260505100050 | 22 | 140 | 1.6 | 6.4 | 0.00 | 0.00 | 0.00 | 48 | |
| 20260505093020 | 22 | 138 | 1.6 | 4.8 | 0.00 | 0.00 | 0.00 | 53 | |
| 20260505090051 | 22 | 135 | 1.6 | 6.4 | 0.00 | 0.00 | 0.00 | 56 | |
| 20260505083021 | 21 | 115 | 1.6 | 6.4 | 0.00 | 0.00 | 0.00 | 60 |